Time,TemperatureF,DewpointF,PressureIn,WindDirection,WindDirectionDegrees,WindSpeedMPH,WindSpeedGustMPH,Humidity,HourlyPrecipIn,Conditions,Clouds,dailyrainin,SoftwareType,DateUTC
2013-01-08 00:03:00,39.6,28.7,30.03,SE,135,3.8,7.2,65,0.00,,,0.00,WUHU216HW,2013-01-08 06:03:00,
2013-01-08 00:08:00,39.6,28.7,30.03,SSE,158,3.8,7.6,65,0.00,,,0.00,WUHU216HW,2013-01-08 06:08:00,
2013-01-08 00:13:00,39.4,28.5,30.03,SW,225,3.1,7.6,65,0.00,,,0.00,WUHU216HW,2013-01-08 06:13:00,
2013-01-08 00:18:00,39.2,28.4,30.03,South,180,5.8,6.9,65,0.00,,,0.00,WUHU216HW,2013-01-08 06:18:00,
2013-01-08 00:23:00,39.2,28.4,30.03,South,180,5.1,6.9,65,0.00,,,0.00,WUHU216HW,2013-01-08 06:23:00,
2013-01-08 00:28:00,39.2,28.7,30.03,South,180,4.5,7.8,66,0.00,,,0.00,WUHU216HW,2013-01-08 06:28:00,
2013-01-08 00:33:00,39.2,28.4,30.03,SSW,203,2.7,7.8,65,0.00,,,0.00,WUHU216HW,2013-01-08 06:33:00,
2013-01-08 00:38:00,38.9,28.5,30.03,South,180,3.6,6.5,66,0.00,,,0.00,WUHU216HW,2013-01-08 06:38:00,
2013-01-08 00:43:00,38.9,28.8,30.03,SW,225,1.8,6.9,67,0.00,,,0.00,WUHU216HW,2013-01-08 06:43:00,
2013-01-08 00:48:00,38.9,28.8,30.03,SE,135,1.8,6.9,67,0.00,,,0.00,WUHU216HW,2013-01-08 06:48:00,
2013-01-08 00:53:00,38.7,28.6,30.03,South,180,5.4,6.9,67,0.00,,,0.00,WUHU216HW,2013-01-08 06:53:00,
2013-01-08 00:58:00,38.7,28.6,30.03,South,180,7.4,7.6,67,0.00,,,0.00,WUHU216HW,2013-01-08 06:58:00,
2013-01-08 01:03:00,38.7,28.6,30.03,SSW,203,7.8,7.8,67,0.00,,,0.00,WUHU216HW,2013-01-08 07:03:00,
2013-01-08 01:08:00,38.5,28.4,30.03,South,180,4.0,7.8,67,0.00,,,0.00,WUHU216HW,2013-01-08 07:08:00,
2013-01-08 01:13:00,38.5,28.4,30.03,SSW,203,1.8,7.8,67,0.00,,,0.00,WUHU216HW,2013-01-08 07:13:00,
2013-01-08 01:18:00,38.5,28.4,30.03,SW,225,8.1,8.1,67,0.00,,,0.00,WUHU216HW,2013-01-08 07:18:00,
2013-01-08 01:23:00,38.5,28.8,30.03,South,180,4.5,8.1,68,0.00,,,0.00,WUHU216HW,2013-01-08 07:23:00,
2013-01-08 01:28:00,38.3,28.7,30.03,South,180,6.9,8.1,68,0.00,,,0.00,WUHU216HW,2013-01-08 07:28:00,
2013-01-08 01:33:00,38.3,28.7,30.02,SSW,203,6.0,7.6,68,0.00,,,0.00,WUHU216HW,2013-01-08 07:33:00,
2013-01-08 01:38:00,38.3,28.7,30.02,South,180,4.0,7.6,68,0.00,,,0.00,WUHU216HW,2013-01-08 07:38:00,
2013-01-08 01:43:00,38.3,28.7,30.03,South,180,5.4,7.6,68,0.00,,,0.00,WUHU216HW,2013-01-08 07:43:00,
2013-01-08 01:48:00,38.5,28.8,30.03,SSW,203,3.4,7.6,68,0.00,,,0.00,WUHU216HW,2013-01-08 07:48:00,
2013-01-08 01:53:00,38.5,28.8,30.03,SSW,203,3.4,8.7,68,0.00,,,0.00,WUHU216HW,2013-01-08 07:53:00,
2013-01-08 01:58:00,38.5,28.8,30.03,SSW,203,3.8,8.7,68,0.00,,,0.00,WUHU216HW,2013-01-08 07:58:00,
2013-01-08 02:03:00,38.5,28.8,30.03,South,180,4.7,7.6,68,0.00,,,0.00,WUHU216HW,2013-01-08 08:03:00,
2013-01-08 02:08:00,38.5,28.8,30.03,SSW,203,4.0,6.9,68,0.00,,,0.00,WUHU216HW,2013-01-08 08:08:00,
2013-01-08 02:13:00,38.3,28.7,30.04,South,180,4.7,7.8,68,0.00,,,0.00,WUHU216HW,2013-01-08 08:13:00,
2013-01-08 02:18:00,38.5,28.8,30.03,SSE,158,2.5,9.6,68,0.00,,,0.00,WUHU216HW,2013-01-08 08:18:00,
2013-01-08 02:23:00,38.3,28.7,30.03,SSW,203,2.5,9.6,68,0.00,,,0.00,WUHU216HW,2013-01-08 08:23:00,
2013-01-08 02:28:00,38.2,28.5,30.03,South,180,1.8,6.5,68,0.00,,,0.00,WUHU216HW,2013-01-08 08:28:00,
2013-01-08 02:33:00,37.8,28.5,30.03,SSE,158,3.6,4.9,69,0.00,,,0.00,WUHU216HW,2013-01-08 08:33:00,
2013-01-08 02:38:00,37.6,28.5,30.03,SSW,203,3.8,6.0,69,0.00,,,0.00,WUHU216HW,2013-01-08 08:38:00,
2013-01-08 02:43:00,37.4,28.3,30.03,SSE,158,5.4,6.0,69,0.00,,,0.00,WUHU216HW,2013-01-08 08:43:00,
2013-01-08 02:48:00,37.1,28.3,30.03,SSE,158,2.9,6.3,70,0.00,,,0.00,WUHU216HW,2013-01-08 08:48:00,
2013-01-08 02:53:00,37.1,28.6,30.03,SSW,203,3.1,6.3,71,0.00,,,0.00,WUHU216HW,2013-01-08 08:53:00,
2013-01-08 02:58:00,37.1,28.6,30.03,SSW,203,3.8,7.4,71,0.00,,,0.00,WUHU216HW,2013-01-08 08:58:00,
2013-01-08 03:03:00,37.1,28.6,30.03,SSW,203,3.6,7.4,71,0.00,,,0.00,WUHU216HW,2013-01-08 09:03:00,
2013-01-08 03:08:00,37.1,28.6,30.03,SSW,203,3.1,6.9,71,0.00,,,0.00,WUHU216HW,2013-01-08 09:08:00,
2013-01-08 03:13:00,37.1,28.6,30.04,SSE,158,5.1,6.9,71,0.00,,,0.00,WUHU216HW,2013-01-08 09:13:00,
2013-01-08 03:18:00,37.1,28.6,30.04,SSW,203,2.5,5.8,71,0.00,,,0.00,WUHU216HW,2013-01-08 09:18:00,
2013-01-08 03:23:00,37.1,28.6,30.04,SSW,203,2.7,6.0,71,0.00,,,0.00,WUHU216HW,2013-01-08 09:23:00,
2013-01-08 03:28:00,36.9,28.5,30.04,South,180,2.5,6.0,71,0.00,,,0.00,WUHU216HW,2013-01-08 09:28:00,
2013-01-08 03:33:00,36.7,28.5,30.04,South,180,2.7,5.1,72,0.00,,,0.00,WUHU216HW,2013-01-08 09:33:00,
2013-01-08 03:38:00,36.7,28.5,30.04,SSW,203,4.0,5.8,72,0.00,,,0.00,WUHU216HW,2013-01-08 09:38:00,
2013-01-08 03:43:00,36.7,28.5,30.04,SW,225,5.1,6.5,72,0.00,,,0.00,WUHU216HW,2013-01-08 09:43:00,
2013-01-08 03:48:00,36.5,28.4,30.03,SW,225,3.1,6.5,72,0.00,,,0.00,WUHU216HW,2013-01-08 09:48:00,
2013-01-08 03:53:00,36.4,28.2,30.03,South,180,3.4,4.7,72,0.00,,,0.00,WUHU216HW,2013-01-08 09:53:00,
2013-01-08 03:58:00,36.4,28.5,30.03,SSW,203,4.7,6.5,73,0.00,,,0.00,WUHU216HW,2013-01-08 09:58:00,
2013-01-08 04:03:00,36.5,28.7,30.03,WSW,248,2.5,6.9,73,0.00,,,0.00,WUHU216HW,2013-01-08 10:03:00,
2013-01-08 04:08:00,36.4,28.5,30.03,SSE,158,3.1,6.9,73,0.00,,,0.00,WUHU216HW,2013-01-08 10:08:00,
2013-01-08 04:13:00,36.4,28.5,30.03,South,180,4.7,6.3,73,0.00,,,0.00,WUHU216HW,2013-01-08 10:13:00,
2013-01-08 04:18:00,36.4,28.5,30.03,SSW,203,8.1,8.1,73,0.00,,,0.00,WUHU216HW,2013-01-08 10:18:00,
2013-01-08 04:23:00,36.4,28.5,30.02,SSW,203,4.5,8.1,73,0.00,,,0.00,WUHU216HW,2013-01-08 10:23:00,
2013-01-08 04:28:00,36.4,28.5,30.02,South,180,1.8,8.1,73,0.00,,,0.00,WUHU216HW,2013-01-08 10:28:00,
2013-01-08 04:33:00,36.4,28.5,30.02,South,180,4.0,7.4,73,0.00,,,0.00,WUHU216HW,2013-01-08 10:33:00,
2013-01-08 04:38:00,36.5,29.0,30.02,South,180,4.0,7.4,74,0.00,,,0.00,WUHU216HW,2013-01-08 10:38:00,
2013-01-08 04:43:00,36.5,29.0,30.02,South,180,3.4,5.8,74,0.00,,,0.00,WUHU216HW,2013-01-08 10:43:00,
2013-01-08 04:48:00,36.4,28.5,30.02,South,180,2.5,5.8,73,0.00,,,0.00,WUHU216HW,2013-01-08 10:48:00,
2013-01-08 04:53:00,36.4,28.5,30.02,SSW,203,2.5,5.4,73,0.00,,,0.00,WUHU216HW,2013-01-08 10:53:00,
2013-01-08 04:58:00,36.4,28.5,30.02,SW,225,1.6,5.4,73,0.00,,,0.00,WUHU216HW,2013-01-08 10:58:00,
2013-01-08 05:03:00,36.4,28.5,30.02,South,180,5.4,8.1,73,0.00,,,0.00,WUHU216HW,2013-01-08 11:03:00,
2013-01-08 05:08:00,36.5,29.0,30.02,SW,225,1.6,8.1,74,0.00,,,0.00,WUHU216HW,2013-01-08 11:08:00,
2013-01-08 05:13:00,36.5,29.0,30.02,SSE,158,5.1,9.2,74,0.00,,,0.00,WUHU216HW,2013-01-08 11:13:00,
2013-01-08 05:18:00,36.5,29.0,30.02,WSW,248,3.1,9.2,74,0.00,,,0.00,WUHU216HW,2013-01-08 11:18:00,
2013-01-08 05:23:00,36.7,29.2,30.02,South,180,2.9,5.4,74,0.00,,,0.00,WUHU216HW,2013-01-08 11:23:00,
2013-01-08 05:28:00,36.7,29.2,30.02,South,180,5.4,5.4,74,0.00,,,0.00,WUHU216HW,2013-01-08 11:28:00,
2013-01-08 05:33:00,36.7,29.2,30.02,SW,225,3.6,5.4,74,0.00,,,0.00,WUHU216HW,2013-01-08 11:33:00,
2013-01-08 05:38:00,36.7,29.2,30.02,SSW,203,3.8,5.4,74,0.00,,,0.00,WUHU216HW,2013-01-08 11:38:00,
2013-01-08 05:43:00,36.7,29.2,30.02,South,180,3.6,6.3,74,0.00,,,0.00,WUHU216HW,2013-01-08 11:43:00,
2013-01-08 05:48:00,36.7,29.2,30.02,SSW,203,5.6,6.3,74,0.00,,,0.00,WUHU216HW,2013-01-08 11:48:00,
2013-01-08 05:53:00,36.9,29.3,30.02,SW,225,8.3,8.3,74,0.00,,,0.00,WUHU216HW,2013-01-08 11:53:00,
2013-01-08 05:58:00,37.1,29.5,30.02,SSW,203,8.5,8.5,74,0.00,,,0.00,WUHU216HW,2013-01-08 11:58:00,
2013-01-08 06:03:00,37.1,29.5,30.02,South,180,4.7,8.5,74,0.00,,,0.00,WUHU216HW,2013-01-08 12:03:00,
2013-01-08 06:08:00,37.1,29.5,30.01,South,180,4.7,8.5,74,0.00,,,0.00,WUHU216HW,2013-01-08 12:08:00,
2013-01-08 06:13:00,37.3,29.4,30.01,SSW,203,4.0,7.8,73,0.00,,,0.00,WUHU216HW,2013-01-08 12:13:00,
2013-01-08 06:18:00,37.3,29.4,30.01,SW,225,6.3,8.5,73,0.00,,,0.00,WUHU216HW,2013-01-08 12:18:00,
2013-01-08 06:23:00,37.4,29.6,30.01,SSW,203,6.7,8.5,73,0.00,,,0.00,WUHU216HW,2013-01-08 12:23:00,
2013-01-08 06:28:00,37.3,29.4,30.01,SW,225,4.7,8.9,73,0.00,,,0.00,WUHU216HW,2013-01-08 12:28:00,
2013-01-08 06:33:00,37.1,29.3,30.01,South,180,4.3,8.9,73,0.00,,,0.00,WUHU216HW,2013-01-08 12:33:00,
2013-01-08 06:38:00,37.4,29.6,30.01,SSW,203,6.7,9.4,73,0.00,,,0.00,WUHU216HW,2013-01-08 12:38:00,
2013-01-08 06:43:00,37.3,29.4,30.01,SW,225,5.4,9.4,73,0.00,,,0.00,WUHU216HW,2013-01-08 12:43:00,
2013-01-08 06:48:00,37.3,29.4,30.01,South,180,6.9,11.2,73,0.00,,,0.00,WUHU216HW,2013-01-08 12:48:00,
2013-01-08 06:53:00,37.3,29.4,30.01,West,270,4.0,11.2,73,0.00,,,0.00,WUHU216HW,2013-01-08 12:53:00,
2013-01-08 06:58:00,37.1,29.3,30.01,SW,225,7.8,10.3,73,0.00,,,0.00,WUHU216HW,2013-01-08 12:58:00,
2013-01-08 07:03:00,37.1,29.3,30.01,South,180,7.6,11.6,73,0.00,,,0.00,WUHU216HW,2013-01-08 13:03:00,
2013-01-08 07:08:00,37.1,28.9,30.01,SSW,203,6.9,11.6,72,0.00,,,0.00,WUHU216HW,2013-01-08 13:08:00,
2013-01-08 07:13:00,37.1,29.3,30.01,SSE,158,3.6,10.5,73,0.00,,,0.00,WUHU216HW,2013-01-08 13:13:00,
2013-01-08 07:18:00,36.9,28.7,30.01,SW,225,4.9,11.4,72,0.00,,,0.00,WUHU216HW,2013-01-08 13:18:00,
2013-01-08 07:23:00,36.9,28.7,30.01,South,180,6.5,11.4,72,0.00,,,0.00,WUHU216HW,2013-01-08 13:23:00,
2013-01-08 07:28:00,36.9,28.7,30.02,SSW,203,6.3,11.2,72,0.00,,,0.00,WUHU216HW,2013-01-08 13:28:00,
2013-01-08 07:33:00,36.7,28.5,30.02,South,180,4.7,8.9,72,0.00,,,0.00,WUHU216HW,2013-01-08 13:33:00,
2013-01-08 07:38:00,36.7,28.5,30.02,SW,225,11.0,11.2,72,0.00,,,0.00,WUHU216HW,2013-01-08 13:38:00,
2013-01-08 07:43:00,36.7,28.5,30.02,SSW,203,5.6,12.5,72,0.00,,,0.00,WUHU216HW,2013-01-08 13:43:00,
2013-01-08 07:48:00,36.5,28.4,30.02,SSW,203,4.7,12.5,72,0.00,,,0.00,WUHU216HW,2013-01-08 13:48:00,
2013-01-08 07:53:00,36.5,28.1,30.02,South,180,4.3,9.8,71,0.00,,,0.00,WUHU216HW,2013-01-08 13:53:00,
2013-01-08 07:58:00,36.7,28.3,30.02,SW,225,6.0,8.7,71,0.00,,,0.00,WUHU216HW,2013-01-08 13:58:00,
2013-01-08 08:03:00,36.7,28.3,30.02,SW,225,4.7,9.8,71,0.00,,,0.00,WUHU216HW,2013-01-08 14:03:00,
2013-01-08 08:08:00,36.7,28.3,30.02,SSW,203,3.6,9.8,71,0.00,,,0.00,WUHU216HW,2013-01-08 14:08:00,
2013-01-08 08:13:00,36.9,28.5,30.02,SSW,203,8.5,10.1,71,0.00,,,0.00,WUHU216HW,2013-01-08 14:13:00,
2013-01-08 08:18:00,37.1,28.3,30.02,West,270,9.2,10.1,70,0.00,,,0.00,WUHU216HW,2013-01-08 14:18:00,
2013-01-08 08:23:00,37.3,28.4,30.02,SSW,203,7.6,9.2,70,0.00,,,0.00,WUHU216HW,2013-01-08 14:23:00,
2013-01-08 08:28:00,37.3,28.1,30.02,South,180,8.5,9.2,69,0.00,,,0.00,WUHU216HW,2013-01-08 14:28:00,
2013-01-08 08:33:00,37.6,28.5,30.02,South,180,4.3,8.5,69,0.00,,,0.00,WUHU216HW,2013-01-08 14:33:00,
2013-01-08 08:38:00,37.8,28.5,30.02,South,180,2.9,7.6,69,0.00,,,0.00,WUHU216HW,2013-01-08 14:38:00,
2013-01-08 08:43:00,38.0,28.4,30.02,SSW,203,6.9,8.5,68,0.00,,,0.00,WUHU216HW,2013-01-08 14:43:00,
2013-01-08 08:48:00,38.3,28.3,30.02,South,180,1.8,8.5,67,0.00,,,0.00,WUHU216HW,2013-01-08 14:48:00,
2013-01-08 08:53:00,38.7,28.6,30.01,SSW,203,4.9,6.9,67,0.00,,,0.00,WUHU216HW,2013-01-08 14:53:00,
2013-01-08 08:58:00,40.3,29.8,30.01,South,180,5.1,9.2,66,0.00,,,0.00,WUHU216HW,2013-01-08 14:58:00,
2013-01-08 09:03:00,41.6,29.9,30.01,SSW,203,4.5,10.1,63,0.00,,,0.00,WUHU216HW,2013-01-08 15:03:00,
2013-01-08 09:08:00,42.1,30.0,30.01,SW,225,6.9,10.5,62,0.00,,,0.00,WUHU216HW,2013-01-08 15:08:00,
2013-01-08 09:13:00,42.7,29.7,30.02,SW,225,2.5,10.5,60,0.00,,,0.00,WUHU216HW,2013-01-08 15:13:00,
2013-01-08 09:18:00,43.6,30.2,30.02,South,180,6.0,10.3,59,0.00,,,0.00,WUHU216HW,2013-01-08 15:18:00,
2013-01-08 09:23:00,44.1,30.2,30.02,SSW,203,5.4,10.3,58,0.00,,,0.00,WUHU216HW,2013-01-08 15:23:00,
2013-01-08 09:28:00,44.5,30.2,30.02,WSW,248,5.4,11.0,57,0.00,,,0.00,WUHU216HW,2013-01-08 15:28:00,
2013-01-08 09:33:00,44.8,30.5,30.02,SSW,203,8.5,11.0,57,0.00,,,0.00,WUHU216HW,2013-01-08 15:33:00,
2013-01-08 09:38:00,45.0,30.7,30.02,South,180,10.5,10.5,57,0.00,,,0.00,WUHU216HW,2013-01-08 15:38:00,
2013-01-08 09:43:00,45.2,30.8,30.02,SSE,158,2.9,10.5,57,0.00,,,0.00,WUHU216HW,2013-01-08 15:43:00,
2013-01-08 09:48:00,45.7,30.9,30.02,South,180,3.1,10.5,56,0.00,,,0.00,WUHU216HW,2013-01-08 15:48:00,
2013-01-08 09:53:00,46.3,30.9,30.02,South,180,7.6,9.8,55,0.00,,,0.00,WUHU216HW,2013-01-08 15:53:00,
2013-01-08 09:58:00,46.3,30.4,30.03,SW,225,7.6,13.9,54,0.00,,,0.00,WUHU216HW,2013-01-08 15:58:00,
2013-01-08 10:03:00,46.8,31.0,30.03,South,180,5.1,13.9,54,0.00,,,0.00,WUHU216HW,2013-01-08 16:03:00,
2013-01-08 10:08:00,47.0,30.7,30.03,SSE,158,8.5,12.5,53,0.00,,,0.00,WUHU216HW,2013-01-08 16:08:00,
2013-01-08 10:13:00,47.2,31.3,30.03,SW,225,5.4,12.5,54,0.00,,,0.00,WUHU216HW,2013-01-08 16:13:00,
2013-01-08 10:18:00,47.5,30.7,30.02,SSW,203,8.7,10.5,52,0.00,,,0.00,WUHU216HW,2013-01-08 16:18:00,
2013-01-08 10:23:00,47.7,30.9,30.02,SSW,203,5.4,9.8,52,0.00,,,0.00,WUHU216HW,2013-01-08 16:23:00,
2013-01-08 10:28:00,47.5,30.7,30.02,SW,225,8.5,13.4,52,0.00,,,0.00,WUHU216HW,2013-01-08 16:28:00,
2013-01-08 10:33:00,47.2,30.8,30.02,SSW,203,5.6,13.4,53,0.00,,,0.00,WUHU216HW,2013-01-08 16:33:00,
2013-01-08 10:38:00,48.1,31.2,30.02,WSW,248,9.4,11.4,52,0.00,,,0.00,WUHU216HW,2013-01-08 16:38:00,
2013-01-08 10:43:00,47.9,31.1,30.01,South,180,5.1,11.4,52,0.00,,,0.00,WUHU216HW,2013-01-08 16:43:00,
2013-01-08 10:48:00,48.2,31.3,30.01,SSW,203,7.6,11.4,52,0.00,,,0.00,WUHU216HW,2013-01-08 16:48:00,
2013-01-08 10:53:00,48.8,31.9,30.01,SSW,203,8.1,11.2,52,0.00,,,0.00,WUHU216HW,2013-01-08 16:53:00,
2013-01-08 10:58:00,49.1,31.8,30.01,SSW,203,5.6,11.2,51,0.00,,,0.00,WUHU216HW,2013-01-08 16:58:00,
2013-01-08 11:03:00,49.5,31.7,30.01,SSW,203,13.0,13.0,50,0.00,,,0.00,WUHU216HW,2013-01-08 17:03:00,
2013-01-08 11:08:00,49.3,32.0,30.01,SSW,203,6.7,13.0,51,0.00,,,0.00,WUHU216HW,2013-01-08 17:08:00,
2013-01-08 11:13:00,49.9,32.0,30.01,East,90,4.5,13.0,50,0.00,,,0.00,WUHU216HW,2013-01-08 17:13:00,
2013-01-08 11:18:00,50.0,31.7,30.01,SSW,203,6.3,10.7,49,0.00,,,0.00,WUHU216HW,2013-01-08 17:18:00,
2013-01-08 11:23:00,50.4,32.0,30.00,SSW,203,5.6,11.9,49,0.00,,,0.00,WUHU216HW,2013-01-08 17:23:00,
2013-01-08 11:28:00,50.4,32.0,30.00,South,180,2.7,11.9,49,0.00,,,0.00,WUHU216HW,2013-01-08 17:28:00,
2013-01-08 11:33:00,50.6,31.6,30.00,SSW,203,13.4,14.5,48,0.00,,,0.00,WUHU216HW,2013-01-08 17:33:00,
2013-01-08 11:38:00,50.4,32.0,30.00,SW,225,8.3,14.5,49,0.00,,,0.00,WUHU216HW,2013-01-08 17:38:00,
2013-01-08 11:43:00,51.1,32.7,30.00,SSW,203,5.4,13.4,49,0.00,,,0.00,WUHU216HW,2013-01-08 17:43:00,
2013-01-08 11:48:00,51.1,32.0,30.00,SSE,158,5.4,11.4,48,0.00,,,0.00,WUHU216HW,2013-01-08 17:48:00,
2013-01-08 11:53:00,51.1,32.0,29.99,South,180,6.3,13.0,48,0.00,,,0.00,WUHU216HW,2013-01-08 17:53:00,
2013-01-08 11:58:00,51.3,32.2,29.99,South,180,6.9,13.0,48,0.00,,,0.00,WUHU216HW,2013-01-08 17:58:00,
2013-01-08 12:03:00,51.8,32.8,29.99,SSE,158,8.5,12.8,48,0.00,,,0.00,WUHU216HW,2013-01-08 18:03:00,
2013-01-08 12:08:00,52.0,32.3,29.98,SSW,203,2.9,12.8,47,0.00,,,0.00,WUHU216HW,2013-01-08 18:08:00,
2013-01-08 12:13:00,51.8,32.1,29.97,SSE,158,12.1,14.3,47,0.00,,,0.00,WUHU216HW,2013-01-08 18:13:00,
2013-01-08 12:18:00,51.5,31.9,29.97,South,180,7.8,16.1,47,0.00,,,0.00,WUHU216HW,2013-01-08 18:18:00,
2013-01-08 12:23:00,52.0,32.3,29.96,SE,135,6.9,16.1,47,0.00,,,0.00,WUHU216HW,2013-01-08 18:23:00,
2013-01-08 12:28:00,52.2,32.0,29.96,SSE,158,7.2,14.5,46,0.00,,,0.00,WUHU216HW,2013-01-08 18:28:00,
2013-01-08 12:33:00,52.4,32.1,29.96,SW,225,7.6,14.5,46,0.00,,,0.00,WUHU216HW,2013-01-08 18:33:00,
2013-01-08 12:38:00,52.7,32.4,29.95,SSW,203,12.3,13.2,46,0.00,,,0.00,WUHU216HW,2013-01-08 18:38:00,
2013-01-08 12:43:00,52.7,32.4,29.95,South,180,10.5,14.3,46,0.00,,,0.00,WUHU216HW,2013-01-08 18:43:00,
2013-01-08 12:48:00,52.9,32.1,29.95,South,180,12.8,17.9,45,0.00,,,0.00,WUHU216HW,2013-01-08 18:48:00,
2013-01-08 12:53:00,52.9,32.6,29.95,South,180,12.5,17.9,46,0.00,,,0.00,WUHU216HW,2013-01-08 18:53:00,
2013-01-08 12:58:00,53.5,33.0,29.95,SW,225,8.5,15.2,46,0.00,,,0.00,WUHU216HW,2013-01-08 18:58:00,
2013-01-08 13:03:00,53.8,32.3,29.95,SSE,158,9.2,15.4,44,0.00,,,0.00,WUHU216HW,2013-01-08 19:03:00,
2013-01-08 13:08:00,53.8,32.9,29.95,SSW,203,4.0,15.4,45,0.00,,,0.00,WUHU216HW,2013-01-08 19:08:00,
2013-01-08 13:13:00,53.6,32.1,29.96,SSW,203,12.5,16.6,44,0.00,,,0.00,WUHU216HW,2013-01-08 19:13:00,
2013-01-08 13:18:00,53.6,32.7,29.95,South,180,8.7,16.6,45,0.00,,,0.00,WUHU216HW,2013-01-08 19:18:00,
2013-01-08 13:23:00,54.2,32.6,29.96,South,180,12.1,15.0,44,0.00,,,0.00,WUHU216HW,2013-01-08 19:23:00,
2013-01-08 13:28:00,54.4,32.8,29.96,SSW,203,8.5,14.3,44,0.00,,,0.00,WUHU216HW,2013-01-08 19:28:00,
2013-01-08 13:33:00,54.5,32.4,29.95,SSW,203,7.8,14.3,43,0.00,,,0.00,WUHU216HW,2013-01-08 19:33:00,
2013-01-08 13:38:00,54.9,33.2,29.96,SSW,203,3.6,13.6,44,0.00,,,0.00,WUHU216HW,2013-01-08 19:38:00,
2013-01-08 13:43:00,55.4,33.2,29.95,South,180,10.1,12.8,43,0.00,,,0.00,WUHU216HW,2013-01-08 19:43:00,
2013-01-08 13:48:00,55.4,33.2,29.95,West,270,9.6,11.9,43,0.00,,,0.00,WUHU216HW,2013-01-08 19:48:00,
2013-01-08 13:53:00,55.6,33.3,29.95,South,180,12.8,12.8,43,0.00,,,0.00,WUHU216HW,2013-01-08 19:53:00,
2013-01-08 13:58:00,55.1,32.9,29.96,SW,225,11.0,13.6,43,0.00,,,0.00,WUHU216HW,2013-01-08 19:58:00,
2013-01-08 14:03:00,55.4,33.2,29.96,SW,225,6.3,13.6,43,0.00,,,0.00,WUHU216HW,2013-01-08 20:03:00,
2013-01-08 14:08:00,55.6,33.3,29.96,South,180,12.1,13.4,43,0.00,,,0.00,WUHU216HW,2013-01-08 20:08:00,
2013-01-08 14:13:00,55.6,33.3,29.96,SSW,203,8.7,13.4,43,0.00,,,0.00,WUHU216HW,2013-01-08 20:13:00,
2013-01-08 14:18:00,54.9,32.7,29.97,SSW,203,11.9,13.2,43,0.00,,,0.00,WUHU216HW,2013-01-08 20:18:00,
2013-01-08 14:23:00,54.7,33.1,29.96,SW,225,9.2,13.2,44,0.00,,,0.00,WUHU216HW,2013-01-08 20:23:00,
2013-01-08 14:28:00,54.5,33.0,29.96,South,180,4.7,12.8,44,0.00,,,0.00,WUHU216HW,2013-01-08 20:28:00,
2013-01-08 14:33:00,54.2,33.1,29.97,South,180,7.4,12.8,45,0.00,,,0.00,WUHU216HW,2013-01-08 20:33:00,
2013-01-08 14:38:00,54.4,33.8,29.96,SSW,203,4.7,12.5,46,0.00,,,0.00,WUHU216HW,2013-01-08 20:38:00,
2013-01-08 14:43:00,55.4,33.8,29.97,South,180,6.3,10.3,44,0.00,,,0.00,WUHU216HW,2013-01-08 20:43:00,
2013-01-08 14:48:00,56.2,33.8,29.96,SSW,203,14.8,14.8,43,0.00,,,0.00,WUHU216HW,2013-01-08 20:48:00,
2013-01-08 14:53:00,55.4,33.2,29.97,SSW,203,13.6,14.8,43,0.00,,,0.00,WUHU216HW,2013-01-08 20:53:00,
2013-01-08 14:58:00,55.4,33.8,29.96,South,180,5.8,14.8,44,0.00,,,0.00,WUHU216HW,2013-01-08 20:58:00,
2013-01-08 15:03:00,55.6,33.3,29.96,SSW,203,5.8,14.8,43,0.00,,,0.00,WUHU216HW,2013-01-08 21:03:00,
2013-01-08 15:08:00,55.8,32.9,29.96,SSW,203,7.8,14.8,42,0.00,,,0.00,WUHU216HW,2013-01-08 21:08:00,
2013-01-08 15:13:00,55.8,32.9,29.96,SW,225,11.2,14.3,42,0.00,,,0.00,WUHU216HW,2013-01-08 21:13:00,
2013-01-08 15:18:00,55.6,33.3,29.96,SSW,203,6.9,15.4,43,0.00,,,0.00,WUHU216HW,2013-01-08 21:18:00,
2013-01-08 15:23:00,55.4,33.2,29.96,SW,225,6.9,15.4,43,0.00,,,0.00,WUHU216HW,2013-01-08 21:23:00,
2013-01-08 15:28:00,55.8,33.5,29.97,South,180,3.6,14.3,43,0.00,,,0.00,WUHU216HW,2013-01-08 21:28:00,
2013-01-08 15:33:00,56.0,33.7,29.96,SSW,203,12.8,12.8,43,0.00,,,0.00,WUHU216HW,2013-01-08 21:33:00,
2013-01-08 15:38:00,55.8,32.9,29.97,SSW,203,8.9,12.8,42,0.00,,,0.00,WUHU216HW,2013-01-08 21:38:00,
2013-01-08 15:43:00,55.8,33.5,29.97,SW,225,2.5,12.8,43,0.00,,,0.00,WUHU216HW,2013-01-08 21:43:00,
2013-01-08 15:48:00,56.0,33.1,29.97,SSE,158,7.8,9.6,42,0.00,,,0.00,WUHU216HW,2013-01-08 21:48:00,
2013-01-08 15:53:00,55.6,32.8,29.97,SSW,203,12.1,12.1,42,0.00,,,0.00,WUHU216HW,2013-01-08 21:53:00,
2013-01-08 15:58:00,55.3,33.0,29.97,WSW,248,11.6,12.1,43,0.00,,,0.00,WUHU216HW,2013-01-08 21:58:00,
2013-01-08 16:03:00,54.9,33.2,29.97,South,180,9.2,12.1,44,0.00,,,0.00,WUHU216HW,2013-01-08 22:03:00,
2013-01-08 16:08:00,54.5,33.5,29.98,SSW,203,9.4,11.9,45,0.00,,,0.00,WUHU216HW,2013-01-08 22:08:00,
2013-01-08 16:13:00,54.4,33.8,29.98,SSW,203,8.9,11.9,46,0.00,,,0.00,WUHU216HW,2013-01-08 22:13:00,
2013-01-08 16:18:00,54.0,33.6,29.97,SSE,158,9.6,12.8,46,0.00,,,0.00,WUHU216HW,2013-01-08 22:18:00,
2013-01-08 16:23:00,54.0,33.6,29.97,South,180,6.3,12.8,46,0.00,,,0.00,WUHU216HW,2013-01-08 22:23:00,
2013-01-08 16:28:00,53.8,33.9,29.97,South,180,9.2,9.8,47,0.00,,,0.00,WUHU216HW,2013-01-08 22:28:00,
2013-01-08 16:33:00,53.6,34.4,29.97,South,180,4.0,13.4,48,0.00,,,0.00,WUHU216HW,2013-01-08 22:33:00,
2013-01-08 16:38:00,53.3,34.0,29.97,SSE,158,6.7,13.4,48,0.00,,,0.00,WUHU216HW,2013-01-08 22:38:00,
2013-01-08 16:43:00,53.1,34.4,29.97,SSW,203,13.4,13.4,49,0.00,,,0.00,WUHU216HW,2013-01-08 22:43:00,
2013-01-08 16:48:00,52.9,34.8,29.97,South,180,5.1,13.4,50,0.00,,,0.00,WUHU216HW,2013-01-08 22:48:00,
2013-01-08 16:53:00,52.7,35.1,29.98,SW,225,4.7,13.4,51,0.00,,,0.00,WUHU216HW,2013-01-08 22:53:00,
2013-01-08 16:58:00,52.4,34.7,29.98,WSW,248,9.8,12.8,51,0.00,,,0.00,WUHU216HW,2013-01-08 22:58:00,
2013-01-08 17:03:00,52.4,34.7,29.98,SW,225,4.3,12.3,51,0.00,,,0.00,WUHU216HW,2013-01-08 23:03:00,
2013-01-08 17:08:00,52.2,34.7,29.98,SW,225,7.4,12.3,51,0.00,,,0.00,WUHU216HW,2013-01-08 23:08:00,
2013-01-08 17:13:00,51.8,34.3,29.98,SSW,203,6.7,12.1,51,0.00,,,0.00,WUHU216HW,2013-01-08 23:13:00,
2013-01-08 17:18:00,51.7,34.6,29.98,SSW,203,3.4,10.3,52,0.00,,,0.00,WUHU216HW,2013-01-08 23:18:00,
2013-01-08 17:23:00,51.7,34.6,29.99,SW,225,6.3,11.9,52,0.00,,,0.00,WUHU216HW,2013-01-08 23:23:00,
2013-01-08 17:28:00,51.5,34.4,29.99,WSW,248,2.7,11.9,52,0.00,,,0.00,WUHU216HW,2013-01-08 23:28:00,
2013-01-08 17:33:00,51.5,34.8,29.99,SSW,203,6.0,9.2,53,0.00,,,0.00,WUHU216HW,2013-01-08 23:33:00,
2013-01-08 17:38:00,51.5,34.8,30.00,SSW,203,6.5,9.8,53,0.00,,,0.00,WUHU216HW,2013-01-08 23:38:00,
2013-01-08 17:43:00,51.5,34.8,30.00,SSW,203,2.5,9.8,53,0.00,,,0.00,WUHU216HW,2013-01-08 23:43:00,
2013-01-08 17:48:00,51.5,34.8,30.00,South,180,7.6,11.0,53,0.00,,,0.00,WUHU216HW,2013-01-08 23:48:00,
2013-01-08 17:53:00,51.5,34.8,30.01,SSW,203,4.0,11.0,53,0.00,,,0.00,WUHU216HW,2013-01-08 23:53:00,
2013-01-08 17:58:00,51.3,35.2,30.01,SW,225,3.1,9.4,54,0.00,,,0.00,WUHU216HW,2013-01-08 23:58:00,
2013-01-08 18:03:00,51.3,35.2,30.01,SW,225,5.4,11.0,54,0.00,,,0.00,WUHU216HW,2013-01-09 00:03:00,
2013-01-08 18:08:00,50.9,34.8,30.01,SW,225,7.2,12.3,54,0.00,,,0.00,WUHU216HW,2013-01-09 00:08:00,
2013-01-08 18:13:00,50.8,35.1,30.01,SSE,158,2.5,12.3,55,0.00,,,0.00,WUHU216HW,2013-01-09 00:13:00,
2013-01-08 18:18:00,50.8,35.1,30.02,SW,225,0.4,8.7,55,0.00,,,0.00,WUHU216HW,2013-01-09 00:18:00,
2013-01-08 18:23:00,50.4,34.8,30.02,SSW,203,1.8,7.6,55,0.00,,,0.00,WUHU216HW,2013-01-09 00:23:00,
2013-01-08 18:28:00,50.0,34.9,30.02,SSW,203,4.7,7.4,56,0.00,,,0.00,WUHU216HW,2013-01-09 00:28:00,
2013-01-08 18:33:00,50.0,34.9,30.03,SW,225,3.6,7.4,56,0.00,,,0.00,WUHU216HW,2013-01-09 00:33:00,
2013-01-08 18:38:00,49.9,34.7,30.03,SSW,203,0.0,6.3,56,0.00,,,0.00,WUHU216HW,2013-01-09 00:38:00,
2013-01-08 18:43:00,49.7,35.0,30.03,WSW,248,1.8,4.9,57,0.00,,,0.00,WUHU216HW,2013-01-09 00:43:00,
2013-01-08 18:48:00,49.3,34.8,30.03,SE,135,4.9,6.3,57,0.00,,,0.00,WUHU216HW,2013-01-09 00:48:00,
2013-01-08 18:53:00,49.3,35.2,30.03,SW,225,4.3,6.3,58,0.00,,,0.00,WUHU216HW,2013-01-09 00:53:00,
2013-01-08 18:58:00,49.3,35.2,30.03,SW,225,3.4,6.9,58,0.00,,,0.00,WUHU216HW,2013-01-09 00:58:00,
2013-01-08 19:03:00,49.1,35.0,30.03,SSW,203,6.7,7.4,58,0.00,,,0.00,WUHU216HW,2013-01-09 01:03:00,
2013-01-08 19:08:00,49.1,35.0,30.03,SW,225,4.7,7.4,58,0.00,,,0.00,WUHU216HW,2013-01-09 01:08:00,
2013-01-08 19:13:00,49.1,35.5,30.04,SW,225,4.9,9.2,59,0.00,,,0.00,WUHU216HW,2013-01-09 01:13:00,
2013-01-08 19:18:00,49.1,35.0,30.04,WSW,248,2.2,9.2,58,0.00,,,0.00,WUHU216HW,2013-01-09 01:18:00,
2013-01-08 19:23:00,49.0,35.3,30.05,SW,225,9.2,9.2,59,0.00,,,0.00,WUHU216HW,2013-01-09 01:23:00,
2013-01-08 19:28:00,48.8,35.1,30.04,SSW,203,2.7,9.2,59,0.00,,,0.00,WUHU216HW,2013-01-09 01:28:00,
2013-01-08 19:33:00,49.0,35.3,30.04,SW,225,2.0,9.2,59,0.00,,,0.00,WUHU216HW,2013-01-09 01:33:00,
2013-01-08 19:38:00,48.8,35.1,30.04,SW,225,4.0,8.1,59,0.00,,,0.00,WUHU216HW,2013-01-09 01:38:00,
2013-01-08 19:43:00,48.6,35.5,30.05,South,180,3.1,8.1,60,0.00,,,0.00,WUHU216HW,2013-01-09 01:43:00,
2013-01-08 19:48:00,48.4,35.3,30.06,South,180,3.4,7.2,60,0.00,,,0.00,WUHU216HW,2013-01-09 01:48:00,
2013-01-08 19:53:00,48.4,35.3,30.06,SSW,203,4.0,7.2,60,0.00,,,0.00,WUHU216HW,2013-01-09 01:53:00,
2013-01-08 19:58:00,48.2,35.5,30.05,South,180,2.9,6.5,61,0.00,,,0.00,WUHU216HW,2013-01-09 01:58:00,
2013-01-08 20:03:00,47.9,35.1,30.06,SSW,203,6.9,10.5,61,0.00,,,0.00,WUHU216HW,2013-01-09 02:03:00,
2013-01-08 20:08:00,47.9,35.1,30.06,SSW,203,7.4,10.5,61,0.00,,,0.00,WUHU216HW,2013-01-09 02:08:00,
2013-01-08 20:13:00,47.7,34.9,30.06,South,180,3.4,7.4,61,0.00,,,0.00,WUHU216HW,2013-01-09 02:13:00,
2013-01-08 20:18:00,47.7,35.4,30.06,SW,225,7.2,7.2,62,0.00,,,0.00,WUHU216HW,2013-01-09 02:18:00,
2013-01-08 20:23:00,47.9,35.5,30.06,SSW,203,5.1,11.2,62,0.00,,,0.00,WUHU216HW,2013-01-09 02:23:00,
2013-01-08 20:28:00,47.7,35.4,30.06,SW,225,4.0,11.2,62,0.00,,,0.00,WUHU216HW,2013-01-09 02:28:00,
2013-01-08 20:33:00,47.9,35.5,30.06,SW,225,6.5,9.2,62,0.00,,,0.00,WUHU216HW,2013-01-09 02:33:00,
2013-01-08 20:38:00,47.5,35.2,30.06,SSW,203,5.4,9.2,62,0.00,,,0.00,WUHU216HW,2013-01-09 02:38:00,
2013-01-08 20:44:00,47.3,35.4,30.06,WSW,248,6.0,7.4,63,0.00,,,0.00,WUHU216HW,2013-01-09 02:44:00,
2013-01-08 20:49:00,47.2,35.2,30.07,SSW,203,1.6,6.3,63,0.00,,,0.00,WUHU216HW,2013-01-09 02:49:00,
2013-01-08 20:54:00,47.2,35.2,30.07,South,180,5.6,5.6,63,0.00,,,0.00,WUHU216HW,2013-01-09 02:54:00,
2013-01-08 20:59:00,47.2,35.2,30.07,SW,225,2.7,5.8,63,0.00,,,0.00,WUHU216HW,2013-01-09 02:59:00,
2013-01-08 21:03:00,47.0,35.0,30.07,SW,225,6.0,6.0,63,0.00,,,0.00,WUHU216HW,2013-01-09 03:03:00,
2013-01-08 21:09:00,47.0,35.4,30.08,SSW,203,1.3,6.3,64,0.00,,,0.00,WUHU216HW,2013-01-09 03:09:00,
2013-01-08 21:14:00,46.8,35.2,30.08,WSW,248,1.1,6.3,64,0.00,,,0.00,WUHU216HW,2013-01-09 03:14:00,
2013-01-08 21:19:00,46.8,35.2,30.08,SW,225,3.8,5.4,64,0.00,,,0.00,WUHU216HW,2013-01-09 03:19:00,
2013-01-08 21:24:00,46.6,35.1,30.08,SW,225,3.1,7.2,64,0.00,,,0.00,WUHU216HW,2013-01-09 03:24:00,
2013-01-08 21:29:00,46.6,35.5,30.08,West,270,1.8,7.2,65,0.00,,,0.00,WUHU216HW,2013-01-09 03:29:00,
2013-01-08 21:33:00,46.6,35.5,30.09,NW,315,2.9,5.4,65,0.00,,,0.00,WUHU216HW,2013-01-09 03:33:00,
2013-01-08 21:38:00,46.8,35.7,30.09,SSW,203,4.0,6.0,65,0.00,,,0.00,WUHU216HW,2013-01-09 03:38:00,
2013-01-08 21:43:00,46.8,35.2,30.10,SSW,203,1.1,6.0,64,0.00,,,0.00,WUHU216HW,2013-01-09 03:43:00,
2013-01-08 21:48:00,46.6,35.1,30.10,West,270,1.3,4.0,64,0.00,,,0.00,WUHU216HW,2013-01-09 03:48:00,
2013-01-08 21:53:00,46.4,35.3,30.10,SSW,203,0.0,3.4,65,0.00,,,0.00,WUHU216HW,2013-01-09 03:53:00,
2013-01-08 21:58:00,46.3,35.1,30.11,ESE,113,0.0,2.9,65,0.00,,,0.00,WUHU216HW,2013-01-09 03:58:00,
2013-01-08 22:03:00,46.1,34.9,30.11,NW,315,1.3,1.8,65,0.00,,,0.00,WUHU216HW,2013-01-09 04:03:00,
2013-01-08 22:08:00,45.7,35.0,30.11,NNW,338,0.4,2.7,66,0.00,,,0.00,WUHU216HW,2013-01-09 04:08:00,
2013-01-08 22:14:00,45.5,34.8,30.12,WNW,293,1.8,3.4,66,0.00,,,0.00,WUHU216HW,2013-01-09 04:14:00,
2013-01-08 22:19:00,45.2,34.5,30.13,West,270,0.0,3.4,66,0.00,,,0.00,WUHU216HW,2013-01-09 04:19:00,
2013-01-08 22:23:00,45.0,34.7,30.12,WSW,248,0.0,2.5,67,0.00,,,0.00,WUHU216HW,2013-01-09 04:23:00,
2013-01-08 22:28:00,44.6,34.8,30.13,North,0,0.0,2.5,68,0.00,,,0.00,WUHU216HW,2013-01-09 04:28:00,
2013-01-08 22:33:00,44.5,34.2,30.13,WNW,293,0.2,2.7,67,0.00,,,0.00,WUHU216HW,2013-01-09 04:33:00,
2013-01-08 22:38:00,44.1,34.2,30.13,West,270,0.0,2.7,68,0.00,,,0.00,WUHU216HW,2013-01-09 04:38:00,
2013-01-08 22:43:00,43.7,33.8,30.13,WNW,293,0.0,2.5,68,0.00,,,0.00,WUHU216HW,2013-01-09 04:43:00,
2013-01-08 22:48:00,43.4,33.6,30.13,NNW,338,0.0,2.2,68,0.00,,,0.00,WUHU216HW,2013-01-09 04:48:00,
2013-01-08 22:53:00,43.2,33.4,30.13,SSW,203,0.0,1.1,68,0.00,,,0.00,WUHU216HW,2013-01-09 04:53:00,
2013-01-08 22:58:00,42.8,33.5,30.13,South,180,0.0,0.0,69,0.00,,,0.00,WUHU216HW,2013-01-09 04:58:00,
2013-01-08 23:02:00,42.8,33.0,30.14,SSW,203,0.0,0.0,68,0.00,,,0.00,WUHU216HW,2013-01-09 05:02:00,
2013-01-08 23:03:00,42.5,33.1,30.14,SW,225,0.0,0.0,69,0.00,,,0.00,WUHU216HW,2013-01-09 05:03:00,
2013-01-08 23:08:00,42.1,33.1,30.14,SSW,203,0.0,0.0,70,0.00,,,0.00,WUHU216HW,2013-01-09 05:08:00,
2013-01-08 23:13:00,41.9,32.6,30.14,WSW,248,0.0,0.0,69,0.00,,,0.00,WUHU216HW,2013-01-09 05:13:00,
2013-01-08 23:18:00,41.8,32.8,30.14,SW,225,0.0,0.0,70,0.00,,,0.00,WUHU216HW,2013-01-09 05:18:00,
2013-01-08 23:23:00,41.4,32.4,30.15,SSW,203,1.8,1.8,70,0.00,,,0.00,WUHU216HW,2013-01-09 05:23:00,
2013-01-08 23:28:00,41.2,32.6,30.15,SSW,203,0.0,2.2,71,0.00,,,0.00,WUHU216HW,2013-01-09 05:28:00,
2013-01-08 23:33:00,41.0,33.0,30.16,NW,315,0.0,2.2,73,0.00,,,0.00,WUHU216HW,2013-01-09 05:33:00,
2013-01-08 23:38:00,40.9,33.1,30.16,NNW,338,0.0,0.0,74,0.00,,,0.00,WUHU216HW,2013-01-09 05:38:00,
2013-01-08 23:43:00,40.7,33.0,30.16,NNW,338,0.0,0.0,74,0.00,,,0.00,WUHU216HW,2013-01-09 05:43:00,
2013-01-08 23:48:00,40.5,32.9,30.18,NNW,338,2.5,2.5,74,0.00,,,0.00,WUHU216HW,2013-01-09 05:48:00,
2013-01-08 23:53:00,40.0,32.0,30.18,NW,315,0.0,2.5,73,0.00,,,0.00,WUHU216HW,2013-01-09 05:53:00,
2013-01-08 23:58:00,39.4,31.2,30.18,SW,225,0.0,2.5,72,0.00,,,0.00,WUHU216HW,2013-01-09 05:58:00,